Location: Newark
(44.2764°N, 5.2753°E)
Time: 20:29:32
(UTC+00:00)

ISS - Pass Details

Date: 26 January 2020
Orbit: 415 x 422 km, 51.6° (Epoch: 24 February)

Event Time Altitude Azimuth Distance (km) Brightness Sun altitude
Rises 18:58:30 0° 284° (WNW) 2,377 1.3 -24.8°
Reaches altitude 10° 19:00:53 10° 299° (WNW) 1,511 -0.2 -25.2°
Enters shadow 19:02:25 19° 322° (NW) 1,086 -1.3 -25.5°
